#timestamp,LO_Frequency,Hit,StdDev 
1670860815.5,286047001.7,N
1670860835.3,286047002.1,N
1670860855.2,286047000.1,N
1670860875.9,286046998.4,N
1670860895.7,286046997.0,N
1670860915.6,286047001.1,N
1670860935.4,286046998.1,N
1670860955.2,286047000.5,N
1670860975.1,286047000.7,N
1670860976.0,286047000.7,N
1670860995.8,286047000.2,N
1670861015.7,286047001.9,N
1670861035.5,286047001.8,N
1670861055.3,286047004.4,N
1670861075.2,286047004.4,N
1670861095.0,286047001.5,N
1670861095.9,286047001.5,N
1670861115.8,286047002.0,N
1670861135.6,286047001.8,N
1670861155.4,286047003.8,N
1670861175.3,286047003.8,N
1670861195.1,286047003.0,N
1670861215.9,286047005.6,Y
1670861235.7,286047004.2,P
1670861255.5,286047000.9,N
1670861275.4,286046999.8,N
1670861295.2,286047001.6,N
1670861315.0,286047002.1,N
1670861315.9,286047002.1,N
1670861335.8,286046999.9,N
1670861355.6,286047000.3,N
1670861375.5,286047000.0,N
1670861395.3,286047000.5,N
1670861415.1,286047000.2,N
1670861435.9,286047000.5,N
1670861455.7,286047000.9,N
1670861475.6,286047001.0,N
1670861495.4,286047000.4,N
1670861515.2,286047000.7,N
1670861535.1,286047000.7,N
1670861536.0,286047000.7,N
1670861555.8,286046998.9,N
1670861575.7,286046999.6,N
1670861595.5,286046998.7,N
1670861615.3,286047001.1,N
1670861635.2,286046998.4,N
1670861655.0,286047000.6,N
1670861655.9,286047000.6,N
1670861675.8,286046998.9,N
1670861695.6,286047001.1,N
1670861715.4,286046998.5,N
1670861735.3,286047000.8,N
1670861755.1,286046999.4,N
1670861775.8,286046998.5,N
1670861795.7,286047000.3,N
1670861815.5,286046998.2,N
1670861835.4,286047000.9,N
1670861855.2,286047001.0,N
1670861875.0,286047001.1,N
1670861875.9,286047001.1,N
1670861895.8,286046998.1,N
1670861915.6,286047000.4,N
1670861935.5,286047000.0,N
1670861955.3,286047000.5,N
1670861975.1,286047000.7,N
1670861995.9,286047000.7,N
1670862015.7,286046998.9,N
1670862035.5,286046998.4,N
1670862055.4,286046998.5,N
1670862075.2,286047001.2,N
1670862095.1,286047000.8,N
1670862096.0,286047000.8,N
1670862115.8,286046999.9,N
1670862135.6,286046999.8,N
1670862155.5,286047002.4,N
1670862175.3,286047000.6,N
1670862195.2,286047001.1,N
1670862215.9,286046998.2,N
1670862235.7,286046998.7,N
1670862255.6,286046999.4,N
1670862275.4,286046999.3,N
1670862325.3,286047000.7,E
1670862335.2,286046998.9,N
1670862355.0,286046997.7,P
1670862355.9,286046997.7,P
1670862375.8,286046999.4,N
1670862395.6,286046997.2,Y
1670862415.5,286047001.1,P
1670862435.3,286047002.8,N
1670862455.1,286047002.6,N
1670862475.9,286047002.4,N
1670862495.7,286047001.9,N
1670862515.5,286047000.4,N
1670862535.4,286046999.9,N
1670862555.2,286047000.6,N
1670862575.0,286047002.7,N
1670862576.0,286047002.7,N
1670862595.8,286047002.3,N
1670862615.6,286047001.3,N
1670862635.5,286047003.7,N
1670862655.3,286047003.9,N
1670862675.1,286047003.9,N
1670862695.9,286047004.2,N
1670862715.7,286047004.4,N
1670862735.5,286047000.4,N
1670862755.4,286047000.0,N
1670862775.2,286047001.3,N
1670862795.1,286047000.1,N
1670862796.0,286047000.1,N
1670862815.8,286047000.2,N
1670862835.6,286047001.4,N
1670862855.5,286047001.9,N
1670862875.3,286047001.5,N
1670862895.1,286047001.6,N
1670862915.9,286047004.0,N
1670862935.7,286047001.3,N
1670862955.6,286047004.1,N
1670862975.4,286047003.2,N
1670862995.2,286047001.8,N
1670863015.1,286047003.9,N
1670863016.0,286047003.9,N
1670863035.8,286047003.5,N
1670863055.7,286047003.8,N
1670863075.5,286047003.7,N
1670863095.3,286047003.7,N
1670863115.2,286047003.1,N
1670863135.0,286047003.7,N
1670863135.9,286047003.7,N
1670863155.8,286047001.8,N
1670863175.6,286047004.3,N
1670863195.4,286047002.5,N
1670863215.3,286047002.5,N
1670863235.1,286047002.2,N
1670863255.8,286047002.2,N
1670863275.7,286047002.1,N
1670863295.5,286047001.9,N
1670863315.4,286047001.3,N
1670863335.2,286047004.1,Y
1670863355.0,286046999.8,P
1670863355.9,286046999.8,N
1670863375.8,286046999.8,N
1670863395.6,286047001.2,N
1670863415.5,286046998.3,N
1670863435.3,286046998.9,N
1670863455.1,286046996.6,N
1670863475.9,286046998.7,N
1670863495.7,286047000.7,N
1670863515.5,286046998.2,N
1670863535.4,286046998.2,N
1670863555.2,286046998.2,N
1670863575.1,286046998.2,N
1670863576.0,286046998.2,N
1670863595.8,286046999.3,N
1670863615.6,286046996.9,N
1670863635.5,286046999.0,N
1670863655.3,286046996.6,N
1670863675.2,286046998.5,N
1670863695.9,286046998.1,N
1670863715.7,286047000.9,N
1670863735.6,286047000.3,N
1670863755.4,286047002.4,N
1670863775.2,286047002.3,N
1670863795.1,286047002.8,N
1670863796.0,286047002.8,N
1670863815.8,286046999.8,N
1670863835.7,286047000.2,N
1670863855.5,286047002.7,N
1670863875.3,286047002.7,N
1670863895.2,286047000.0,N
1670863915.0,286047001.0,N
1670863915.9,286047001.0,N
1670863935.7,286047000.6,N
1670863955.6,286047000.7,N
1670863975.4,286046998.2,N
1670863995.3,286047000.7,N
1670864015.1,286047001.2,N
1670864016.0,286047001.2,N
1670864035.8,286046998.4,N
1670864055.7,286047000.9,N
1670864075.5,286047000.3,N
1670864095.4,286047000.3,N
1670864115.2,286047000.0,N
1670864135.0,286047000.0,N
1670864135.9,286047000.0,N
1670864155.8,286047000.0,N
1670864175.6,286047000.7,N
1670864195.4,286047001.1,N
1670864215.3,286047001.0,N
1670864235.1,286046998.3,N
1670864255.9,286047000.9,N
1670864275.7,286047000.4,N
1670864295.5,286046999.9,N
1670864315.4,286047001.2,N
1670864335.2,286047000.1,N
1670864355.0,286047000.0,N
1670864356.0,286047000.0,N
1670864375.8,286046999.9,N
1670864395.6,286047002.6,N
